Location: Herm
(49.4830°N, 2.4500°W)
Time: 20:25:39
(UTC+00:00)

Envisat - Pass Details

Date: 04 October 2022
Orbit: 763 x 765 km, 98.2° (Epoch: 06 December)

Event Time Altitude Azimuth Distance (km) Brightness Sun altitude
Rises 05:59:04 0° 12° (NNE) 3,247 6.5 -12.9°
Reaches altitude 10° 06:01:24 10° 9° (N) 2,316 5.7 -12.6°
Maximum altitude 06:06:27 67° 289° (WNW) 832 3.0 -11.8°
Drops below altitude 10° 06:11:29 10° 207° (SSW) 2,298 5.2 -10.9°
Sets 06:13:47 0° 205° (SSW) 3,220 5.9 -10.6°
